Find Starlink 33816

NORAD ID: 63677 Int'l Des: 2025-085 Owner: SPXS Country: US Constellation: starlink operational
LEOCIRCULAR

当前视图

正在加载3D地球...

About Starlink 33816

Starlink 33816 (NORAD 63677) is a starlink constellation satellite (v2 mini) launched Apr 28, 2025 by SPXS of US. It operates in LEO, CIRCULAR orbit with a mass of 575.00 kg.

即将过境

Passes for default location (London). Set your location on the main map for personalized predictions.

高度历史

Loading altitude history...

两行轨道根数

1 63677U 25085P 26264.29589895 .00007209 00000-0 27113-3 0 9999
2 63677 42.9981 6.3773 0001029 257.3066 102.7671 15.27590435 78887
Epoch: Sep 21, 2026 • Age: 7 hours

当前状态

高度 495.3 km
远地点 / 近地点 N/A
速度 7.62 km/s
星下点 -42.42°S, 43.47°E
发射日期 Apr 28, 2025
运行时间 1.3 years
类型 internet

技术详情

分类 Payload
质量 575.00 kg
干质量 530.00 kg
长度 0.30 m
跨度 29.00 m
形状 ? Box + pan
制造商 SPXS
平台类型 Starlink V2MO
阶段状态 In Orbit
所有者/国家 SPXS/US

Most Searched